sat.trackr.live / text

‹ back to catalog

ONEWEB-0136

NORAD 47282 · 2020-100AA

PAYLOAD ACTIVE UNKNOWN

§ Identity

Operator
Country
UK
Launch date
2020-12-18
Launch site
VOSTO
Launch vehicle
Mass (kg)
RCS (m²)

Purposes: comms

External: N2YO · Heavens-Above · Gunter

§ Orbital elements

Epoch: 2026-09-20T04:23:37.328352Z

Period
109.72 min
Inclination
87.8986°
Eccentricity
0.0001672
Mean motion
13.12451738 rev/d
Perigee alt
1,212.4 km
Apogee alt
1,215.0 km
Semi-major
7,591.8 km
B*
3.3799e-3
RAAN
331.7932°
Arg perigee
90.2068°
Mean anomaly
269.9252°
Rev number
27,712

§ Raw data

ONEWEB-01361 47282U 20100AA  26263.18307093  .00001229  00000+0  33799-2 0  99922 47282  87.8986 331.7932 0001672  90.2068 269.9252 13.12451738277129

JSON: /api/v1/satellites/47282 · /tle

For live sub-satellite position, see the globe view (requires WebGL).

§ Visibility from observer

Set your observer location to see the next 7 days of passes ≥ 10°. The values pass through the URL so the page stays shareable.

No JS? Fill the form by hand. The geolocation button needs JavaScript.